Regional Weather Roundup
Issued by NWS

Home | Current Version | Previous Version | Graphics & Text | Print | Product List | Glossary Off
Versions: 1 2 3 4 5 6 7 8 9 10 11 12 13 14 15 16 17 18 19 20 21 22 23 24 25 26 27 28 29 30 31 32 33 34 35 36 37 38 39 40 41 42 43 44 45 46 47 48 49 50

000
ASUS43 KOAX 062310
RWRNE

WEATHER ROUNDUP FOR NEBRASKA
NATIONAL WEATHER SERVICE OMAHA NE
600 PM CDT FRI MAY 06 2016

NOTES: SATELLITE DATA IS BEING USED TO AUGMENT CLOUD COVER ABOVE
       12000 FEET.
       "FAIR" INDICATES FEW OR NO CLOUDS BELOW 12,000 FEET WITH NO
       SIGNIFICANT WEATHER AND/OR OBSTRUCTIONS TO VISIBILITY.

  * THESE STATIONS DO NOT REPORT WEATHER SUCH AS RAIN...SNOW OR FOG.

NEZ001>004-019>022-054>056-070000-
NEBRASKA PANHANDLE

CITY           SKY/WX    TMP DP  RH WIND       PRES   REMARKS
SCOTTSBLUFF    CLOUDY    78  49  35 SE13      29.86S
ALLIANCE       MOSUNNY   79  43  27 SE14      29.87F
CHADRON        PTSUNNY   75  50  41 N23G35    29.89F
KIMBALL        CLOUDY    80  45  28 SE17      29.87F
SIDNEY         CLOUDY    82  45  27 SE15      29.86F
$$

NEZ057>060-069>072-079>082-070000-
SOUTHWEST NEBRASKA

CITY           SKY/WX    TMP DP  RH WIND       PRES   REMARKS
NORTH PLATTE   CLOUDY    82  50  32 S10       29.84F
IMPERIAL       CLOUDY    85  34  16 S15G21    29.82F
MCCOOK         SUNNY     82  50  32 S12       29.83F
OGALLALA       SUNNY     81  46  28 SE9       29.84F
$$

NEZ005>010-023>029-035>040-094-070000-
NORTH CENTRAL NEBRASKA

CITY           SKY/WX    TMP DP  RH WIND       PRES   REMARKS
AINSWORTH      CLOUDY    82  50  31 S9        29.85S
BROKEN BOW     MOSUNNY   79  52  38 S10       29.87F
O`NEILL        MOSUNNY   82  51  33 S9        29.84F
ORD            MOSUNNY   81  51  35 S13       29.85F
THEDFORD       CLOUDY    83  44  25 SE15      29.87S
$$

NEZ041-046>049-061>064-073>077-083>087-070000-
SOUTH CENTRAL NEBRASKA

CITY           SKY/WX    TMP DP  RH WIND       PRES   REMARKS
GRAND ISLAND   CLOUDY    81  50  33 S17G25    29.87F
AURORA         MOSUNNY   81  47  30 S16G24    29.88F
HASTINGS       PTSUNNY   80  50  34 S13       29.88F
HEBRON         CLOUDY    81  43  26 SW14G22   29.90F
HOLDREGE       MOSUNNY   82  47  29 S15G21    29.87F
KEARNEY *      CLOUDY    82  52  34 S21       29.88F
YORK           MOSUNNY   82  45  26 S14       29.88F
$$

NEZ011>018-030>034-042>045-070000-
NORTHEAST NEBRASKA

CITY           SKY/WX    TMP DP  RH WIND       PRES   REMARKS
NORFOLK        SUNNY     84  46  26 SW20      29.83F
ALBION         SUNNY     82  48  29 SW15G21   29.86S
BLAIR          SUNNY     87  43  21 SW22      29.86F
COLUMBUS *     SUNNY     84  45  24 S15G21    29.87S
FREMONT        SUNNY     85  43  23 S15G22    29.85F
TEKAMAH        SUNNY     87  44  22 SW18G25   29.83F
WAYNE          SUNNY     84  50  30 SW20G25   29.83F
$$

NEZ050>053-065>068-078-088>093-070000-
SOUTHEAST NEBRASKA

CITY           SKY/WX    TMP DP  RH WIND       PRES   REMARKS
LINCOLN        SUNNY     87  40  19 SW15G23   29.88F
OMAHA EPPLEY   PTSUNNY   87  42  20 S13G23    29.84F
BEATRICE       SUNNY     82  42  24 S15G23    29.90F
FALLS CITY     SUNNY     83  49  30 S13       29.90F
NEBRASKA CITY  SUNNY     83  38  20 SW18      29.89F
PLATTSMOUTH    SUNNY     86  41  20 S18       29.88F
$$

NEZ044-045-051>053-067-070000-
OMAHA AREA

CITY           SKY/WX    TMP DP  RH WIND       PRES   REMARKS
OMAHA EPPLEY   PTSUNNY   87  42  20 S13G23    29.84F
BLAIR          SUNNY     87  43  21 SW22      29.86F
FREMONT        SUNNY     85  43  23 S15G22    29.85F
MILLARD        SUNNY     86  43  22 S8        29.86F
OFFUTT AFB     SUNNY     85  41  21 SW13      29.86F
PLATTSMOUTH    SUNNY     86  41  20 S18       29.88F
WAHOO          FAIR      87  42  20 SW10G22   29.86S
$$




USA.gov is the U.S. government's official web portal to all federal, state and local government web resources and services.